Regional Weather Roundup
Issued by NWS Albany, NY

Home | Current Version | Previous Version | Text Only | Print | Product List | Glossary On
Versions: 1 2 3 4 5 6 7 8 9 10 11 12 13 14 15 16 17 18 19 20 21 22 23 24 25 26 27 28 29 30 31 32 33 34 35 36 37 38 39 40 41 42 43 44 45 46 47 48 49 50
866
ASUS41 KALY 242010
RWRALY

NEW YORK STATE HOURLY WEATHER ROUNDUP
NATIONAL WEATHER SERVICE ALBANY NY
400 PM EDT FRI MAR 24 2017

NOTE: "FAIR" INDICATES FEW OR NO CLOUDS BELOW 12,000 FEET WITH NO
SIGNIFICANT WEATHER AND/OR NO OBSTRUCTIONS TO VISIBILITY.

NYZ032-033-038>043-046>054-057>066-NYZ062>081-082-084-242100-
EAST


CITY           SKY/WX    TMP DP  RH WIND       PRES   REMARKS
ALBANY         CLOUDY    39  30  70 S15       30.09F WCI  31
GLENS FALLS    FRZ RAIN  33  28  81 NW3       30.09S
POUGHKEEPSIE   CLOUDY    42  30  62 SW8       30.17F
NEWBURGH       PTSUNNY   41  34  75 SW12      30.18F
MONTGOMERY     CLOUDY    43  34  70 SW12      30.15F
WHITE PLAINS   MOSUNNY   47  32  56 S9        30.15F
ISLIP          CLOUDY    45  31  58 S17G24    30.19F
NEW YORK CITY  PTSUNNY   54  28  36 SW15G26   30.17F
CENTRAL PARK   MOSUNNY   51  29  42 MISG      30.19F
$$

NYZ005>009-017-018-044>046-055-056-242100-
CENTRAL


CITY           SKY/WX    TMP DP  RH WIND       PRES   REMARKS
FULTON         CLOUDY    43  36  76 SE5       29.97F
SYRACUSE       CLOUDY    45  37  73 SE6       29.97F
ROME           CLOUDY    39  35  86 E8        30.03F WCI  33
ELMIRA         PTSUNNY   57  38  48 SW15      30.00F
BINGHAMTON     CLOUDY    40  34  79 S8        30.04F WCI  34
MONTICELLO     CLOUDY    34  32  93 SE3       30.14F
$$

NYZ026>034-041>043-087-242100-
NORTH


CITY           SKY/WX    TMP DP  RH WIND       PRES   REMARKS
WATERTOWN      CLOUDY    44  37  76 S10G18    29.94S
FORT DRUM      NOT AVBL
MASSENA        LGT RAIN  33  32  96 NE6       29.98F WCI  28
SARANAC LAKE   LGT RAIN  33  32  96 SW3       29.92F FOG
PLATTSBURGH    LGT SNOW  31  28  89 S10       30.03F VSB 3/4 WCI  22
$$

NYZ001>004-010>016-019>021-085-242100-
WEST


CITY           SKY/WX    TMP DP  RH WIND       PRES   REMARKS
NIAGARA FALLS  CLOUDY    62  47  57 SW21G29   29.93F
BUFFALO        PTSUNNY   58  46  64 SW20G29   29.94F
DUNKIRK        CLOUDY    56  43  61 W12G20    29.97S
JAMESTOWN      SUNNY     64  46  52 SW21      29.99F
WELLSVILLE     CLOUDY    64  44  48 SW18G26   30.00F
ROCHESTER      CLOUDY    60  45  57 W16G25    29.94S
PENN YAN       CLOUDY    55  40  56 S10       29.96F
$$

             KEY
       WCI = WIND CHILL INDEX
       VSB = VISIBILITY
       HX  = HEAT INDEX
$$




USA.gov is the U.S. government's official web portal to all federal, state and local government web resources and services.